This is the latest recevied weather packets stored in our database for station/object N7WSS. If no packets are shown the sender has not sent any weather packets the latest 10 day(s).
| Time | Temp. | Humidity | Pressure | Rain* | Wind** | Luminosity | Snow |
|---|---|---|---|---|---|---|---|
| 1787485523 | 28.33° C | 40% | 1013.5 hPa | 0 mm | - | - | - |
| 1787485218 | 28.33° C | 40% | 1013.5 hPa | 0 mm | - | - | - |
| 1787484913 | 28.33° C | 40% | 1013.5 hPa | 0 mm | - | - | - |
| 1787484610 | 28.33° C | 40% | 1013.2 hPa | 0 mm | - | - | - |
| 1787484306 | 28.33° C | 40% | 1013.2 hPa | 0 mm | - | - | - |
| 1787484001 | 28.89° C | 39% | 1013.2 hPa | 0 mm | - | - | - |
| 1787483697 | 28.89° C | 39% | 1013.2 hPa | 0 mm | - | - | - |
| 1787483394 | 28.89° C | 39% | 1013.3 hPa | 0 mm | - | - | - |
| 1787483090 | 28.89° C | 39% | 1013.3 hPa | 0 mm | - | - | - |
| 1787482785 | 28.33° C | 40% | 1013.3 hPa | 0 mm | - | - | - |
| 1787482482 | 28.89° C | 40% | 1013.2 hPa | 0 mm | - | - | - |
| 1787482178 | 28.89° C | 39% | 1013.3 hPa | 0 mm | - | - | - |
| 1787481877 | 29.44° C | 39% | 1013.1 hPa | 0 mm | - | - | - |
| 1787481572 | 29.44° C | 38% | 1013.5 hPa | 0 mm | - | - | - |
| 1787481271 | 29.44° C | 38% | 1013.2 hPa | 0 mm | - | - | - |
| 1787480965 | 29.44° C | 38% | 1013.1 hPa | 0 mm | - | - | - |
| 1787480662 | 29.44° C | 38% | 1013 hPa | 0 mm | - | - | - |
| 1787480358 | 30° C | 37% | 1012.8 hPa | 0 mm | - | - | - |
| 1787480054 | 30° C | 37% | 1013.1 hPa | 0 mm | - | - | - |
| 1787479750 | 30° C | 37% | 1013 hPa | 0 mm | - | - | - |
| 1787479446 | 30° C | 37% | 1013 hPa | 0 mm | - | - | - |
| 1787479143 | 29.44° C | 37% | 1013 hPa | 0 mm | - | - | - |
| 1787478840 | 29.44° C | 37% | 1012.9 hPa | 0 mm | - | - | - |
| 1787478536 | 29.44° C | 38% | 1013 hPa | 0 mm | - | - | - |
| 1787478231 | 29.44° C | 38% | 1013.1 hPa | 0 mm | - | - | - |
* Rain latest hour (hover to see other rain measurements)
** Current wind speed in m/s (hover to see current wind gust speed)